NINGXIA-1 6

Satellite information

Favourite Embed

Satellite Type and Status

PAYLOADIN ORBIT

Key statistics

Satellite NINGXIA-1 6 at a glance.

Uptime

1459

Days in orbit

Revolutions

≈ 14.1

Per day

Orbit

LEO

Low Earth Orbit

Inclination

45.0

Latest

Satellite identification and parameters

Extended collection of information and parameters for NINGXIA-1 6.

Object identification

Identified? True

Debris? False

Object name: NINGXIA-1 6

International designator: 2021-064A

Object number (NORAD): 49018

Object ID (CCSDS): 49018

Country: PEOPLES REPUBLIC OF CHINA (PRC)

Current information (Y/N): Y

RCS size: MEDIUM

Orbital parameters

Period: 102.24 minutes

Inclination: 45.0023 deg

SMA: 7242.792 km

Apoapsis: 870.054 km

Periapsis: 859.26 km

RAAN: 347.5031 deg

Eccentricy: 0.0007451

Argument of periapsis: 15.1441 deg

Mean anomaly: 344.9617 deg

Mean motion: 14.08457466 rev/day

Mean motion (dot): -0.00000063 rev/day2

B* drag term: 0.000040057 1/REarth

Two-line elements (TLE)

Creation date: July 6, 2025, 10:56 p.m.

Reference frame: TEME

Reference center: EARTH

Epoch: July 6, 2025, 6:30 p.m. UTC

TLE line 0: 0 NINGXIA-1 6

TLE line 1: 1 49018U 21064A 25187.77098999 -.00000063 00000-0 40057-4 0 9996

TLE line 2: 2 49018 45.0023 347.5031 0007451 15.1441 344.9617 14.08457466205538

Live tracking on map

Real-time ground track for satellite NINGXIA-1 6.

In-orbit conjunctions

There are no conjunctions computed for NINGXIA-1 6, at the moment. Check back to stay up to date, as we update our databases every day.

Go to all conjunctions

Associated space launch

The Ningxin-1 satellites (also called Zhongzi) are a series of Chinese commercial remote sensing satellite owned by Ningxia Jingui Information Technology Co. Ltd. The satellites were built by DFH Satellite Co. Ltd of CAST. They have been reported to be a commercial operated global EM spectrum signal monitoring satellite system (SIGINT).

NINGXIA-1 6 was lifted into orbit during the mission ‘Long March 6 | Zhongzi Group 02 (Ningxia-1-02)’, on board a Long March 6 space rocket.

The launch took place on July 9, 2021, 11:59 a.m. from Launch Complex 16.

For more information about the launch, click the button.

Launch to space Long March 6 | Zhongzi Group 02 (Ningxia-1-02)
Long March 6 | Zhongzi Group 02 (Ningxia-1-02)

Agency: N/A

Status: Launch Successful

Launch date: July 9, 2021, 11:59 a.m. UTC

Rocket: Long March 6

Launch pad: Launch Complex 16

Location: Taiyuan Satellite Launch Center, People's Republic of China

...

Latest news about this satellite

News about space launch
China’s Long March 6 launches five satellites

China successfully launched a Chang Zheng 6 rocket from LC-16 at the Taiyuan Satellite Launch Center at 11:59 UTC (7:59 PM Beijing time) on Friday July 9.  This launch is the sixth launch of the Chang Zheng 6 (CZ-6), also known as the Long March 6, and th...


Newsletter sign-up

Weekly statistics, charts and insights to help you stay on top of the space industry.